Time,TemperatureF,DewpointF,PressureIn,WindDirection,WindDirectionDegrees,WindSpeedMPH,WindSpeedGustMPH,Humidity,HourlyPrecipIn,Conditions,Clouds,dailyrainin,SoftwareType,DateUTC
2013-01-13 00:03:00,26.0,23.0,-100.00,NNE,30,16.0,20.0,90,-99.99,,,-99.99,,2013-01-13 06:03:00,
2013-01-13 00:12:00,25.0,23.0,-100.00,NNE,30,18.0,24.0,92,-99.99,,,-99.99,,2013-01-13 06:12:00,
2013-01-13 00:22:00,25.0,23.0,-100.00,NNE,30,15.0,21.0,93,-99.99,,,-99.99,,2013-01-13 06:22:00,
2013-01-13 00:32:00,25.0,23.0,-100.00,NNE,30,15.0,21.0,93,-99.99,,,-99.99,,2013-01-13 06:32:00,
2013-01-13 00:42:00,24.0,23.0,-100.00,NE,35,16.0,22.0,93,-99.99,,,-99.99,,2013-01-13 06:42:00,
2013-01-13 00:52:00,24.0,22.0,-100.00,NNE,30,14.0,24.0,93,-99.99,,,-99.99,,2013-01-13 06:52:00,
2013-01-13 01:02:00,24.0,22.0,-100.00,NNE,30,14.0,24.0,93,-99.99,,,-99.99,,2013-01-13 07:02:00,
2013-01-13 01:12:00,24.0,22.0,-100.00,NNE,30,15.0,19.0,92,-99.99,,,-99.99,,2013-01-13 07:12:00,
2013-01-13 01:22:00,24.0,22.0,-100.00,NE,35,13.0,19.0,92,-99.99,,,-99.99,,2013-01-13 07:22:00,
2013-01-13 01:32:00,23.0,21.0,-100.00,NE,35,14.0,18.0,92,-99.99,,,-99.99,,2013-01-13 07:32:00,
2013-01-13 01:42:00,23.0,21.0,-100.00,NE,35,14.0,18.0,92,-99.99,,,-99.99,,2013-01-13 07:42:00,
2013-01-13 01:53:00,24.0,22.0,-100.00,NNE,30,9.0,16.0,92,-99.99,,,-99.99,,2013-01-13 07:53:00,
2013-01-13 02:02:00,24.0,22.0,-100.00,NNE,30,9.0,16.0,92,-99.99,,,-99.99,,2013-01-13 08:02:00,
2013-01-13 02:12:00,23.0,21.0,-100.00,NE,35,13.0,19.0,92,-99.99,,,-99.99,,2013-01-13 08:12:00,
2013-01-13 02:22:00,23.0,21.0,-100.00,NE,40,11.0,15.0,92,-99.99,,,-99.99,,2013-01-13 08:22:00,
2013-01-13 02:32:00,23.0,21.0,-100.00,NE,40,11.0,15.0,92,-99.99,,,-99.99,,2013-01-13 08:32:00,
2013-01-13 02:42:00,23.0,21.0,-100.00,NE,40,13.0,15.0,92,-99.99,,,-99.99,,2013-01-13 08:42:00,
2013-01-13 02:53:00,23.0,21.0,-100.00,NE,35,11.0,14.0,91,-99.99,,,-99.99,,2013-01-13 08:53:00,
2013-01-13 03:02:00,23.0,21.0,-100.00,NE,35,11.0,14.0,91,-99.99,,,-99.99,,2013-01-13 09:02:00,
2013-01-13 03:12:00,24.0,21.0,-100.00,NE,35,12.0,14.0,91,-99.99,,,-99.99,,2013-01-13 09:12:00,
2013-01-13 03:22:00,23.0,21.0,-100.00,NE,35,11.0,15.0,91,-99.99,,,-99.99,,2013-01-13 09:22:00,
2013-01-13 03:32:00,23.0,21.0,-100.00,NE,35,11.0,15.0,91,-99.99,,,-99.99,,2013-01-13 09:32:00,
2013-01-13 03:42:00,23.0,21.0,-100.00,NNE,30,14.0,17.0,91,-99.99,,,-99.99,,2013-01-13 09:42:00,
2013-01-13 03:52:00,23.0,21.0,-100.00,NNE,25,14.0,19.0,91,-99.99,,,-99.99,,2013-01-13 09:52:00,
2013-01-13 04:02:00,23.0,21.0,-100.00,NNE,25,14.0,19.0,91,-99.99,,,-99.99,,2013-01-13 10:02:00,
2013-01-13 04:12:00,23.0,21.0,-100.00,NNE,15,15.0,19.0,90,-99.99,,,-99.99,,2013-01-13 10:12:00,
2013-01-13 04:22:00,23.0,20.0,-100.00,NNE,15,14.0,22.0,90,-99.99,,,-99.99,,2013-01-13 10:22:00,
2013-01-13 04:32:00,23.0,20.0,-100.00,NNE,15,14.0,22.0,90,-99.99,,,-99.99,,2013-01-13 10:32:00,
2013-01-13 04:42:00,22.0,20.0,-100.00,NNE,20,13.0,19.0,90,-99.99,,,-99.99,,2013-01-13 10:42:00,
2013-01-13 04:53:00,22.0,20.0,-100.00,NNE,15,13.0,19.0,90,-99.99,,,-99.99,,2013-01-13 10:53:00,
2013-01-13 05:02:00,22.0,20.0,-100.00,NNE,15,13.0,19.0,90,-99.99,,,-99.99,,2013-01-13 11:02:00,
2013-01-13 05:12:00,22.0,19.0,-100.00,NNE,30,13.0,16.0,89,-99.99,,,-99.99,,2013-01-13 11:12:00,
2013-01-13 05:22:00,22.0,19.0,-100.00,NNE,20,11.0,16.0,88,-99.99,,,-99.99,,2013-01-13 11:22:00,
2013-01-13 05:32:00,22.0,19.0,-100.00,NNE,20,11.0,16.0,88,-99.99,,,-99.99,,2013-01-13 11:32:00,
2013-01-13 05:42:00,22.0,19.0,-100.00,NNE,25,10.0,17.0,87,-99.99,,,-99.99,,2013-01-13 11:42:00,
2013-01-13 05:53:00,22.0,19.0,-100.00,NNE,25,11.0,14.0,87,-99.99,,,-99.99,,2013-01-13 11:53:00,
2013-01-13 06:03:00,22.0,19.0,-100.00,NNE,25,11.0,14.0,87,-99.99,,,-99.99,,2013-01-13 12:03:00,
2013-01-13 06:12:00,22.0,19.0,-100.00,NNE,30,13.0,16.0,89,-99.99,,,-99.99,,2013-01-13 12:12:00,
2013-01-13 06:22:00,22.0,19.0,-100.00,NNE,30,11.0,15.0,90,-99.99,,,-99.99,,2013-01-13 12:22:00,
2013-01-13 06:32:00,22.0,19.0,-100.00,NNE,30,11.0,15.0,90,-99.99,,,-99.99,,2013-01-13 12:32:00,
2013-01-13 06:42:00,22.0,19.0,-100.00,NE,35,9.0,14.0,91,-99.99,,,-99.99,,2013-01-13 12:42:00,
2013-01-13 06:53:00,21.0,19.0,-100.00,NE,35,11.0,14.0,91,-99.99,,,-99.99,,2013-01-13 12:53:00,
2013-01-13 07:02:00,21.0,19.0,-100.00,NE,35,11.0,14.0,91,-99.99,,,-99.99,,2013-01-13 13:02:00,
2013-01-13 07:12:00,21.0,19.0,-100.00,NNE,30,11.0,14.0,91,-99.99,,,-99.99,,2013-01-13 13:12:00,
2013-01-13 07:22:00,21.0,19.0,-100.00,NNE,30,8.0,12.0,91,-99.99,,,-99.99,,2013-01-13 13:22:00,
2013-01-13 07:33:00,21.0,19.0,-100.00,NNE,25,8.0,11.0,91,-99.99,,,-99.99,,2013-01-13 13:33:00,
2013-01-13 07:42:00,21.0,19.0,-100.00,NNE,25,8.0,11.0,91,-99.99,,,-99.99,,2013-01-13 13:42:00,
2013-01-13 07:53:00,21.0,19.0,-100.00,NNE,20,8.0,10.0,90,-99.99,,,-99.99,,2013-01-13 13:53:00,
2013-01-13 08:03:00,21.0,19.0,-100.00,NNE,20,8.0,10.0,90,-99.99,,,-99.99,,2013-01-13 14:03:00,
2013-01-13 08:12:00,21.0,18.0,-100.00,NNE,20,9.0,13.0,89,-99.99,,,-99.99,,2013-01-13 14:12:00,
2013-01-13 08:22:00,20.0,18.0,-100.00,NNE,25,10.0,13.0,89,-99.99,,,-99.99,,2013-01-13 14:22:00,
2013-01-13 08:33:00,20.0,18.0,-100.00,NNE,25,10.0,13.0,89,-99.99,,,-99.99,,2013-01-13 14:33:00,
2013-01-13 08:43:00,20.0,18.0,-100.00,NNE,25,11.0,15.0,89,-99.99,,,-99.99,,2013-01-13 14:43:00,
2013-01-13 08:53:00,20.0,18.0,-100.00,NNE,25,11.0,15.0,89,-99.99,,,-99.99,,2013-01-13 14:53:00,
2013-01-13 09:03:00,20.0,18.0,-100.00,NNE,25,11.0,15.0,89,-99.99,,,-99.99,,2013-01-13 15:03:00,
2013-01-13 09:12:00,20.0,17.0,-100.00,NNE,30,13.0,16.0,88,-99.99,,,-99.99,,2013-01-13 15:12:00,
2013-01-13 09:23:00,20.0,17.0,-100.00,NNE,30,13.0,16.0,85,-99.99,,,-99.99,,2013-01-13 15:23:00,
2013-01-13 09:33:00,20.0,17.0,-100.00,NNE,30,13.0,16.0,85,-99.99,,,-99.99,,2013-01-13 15:33:00,
2013-01-13 09:43:00,20.0,16.0,-100.00,NNE,30,14.0,18.0,84,-99.99,,,-99.99,,2013-01-13 15:43:00,
2013-01-13 09:53:00,20.0,16.0,-100.00,NE,35,13.0,20.0,82,-99.99,,,-99.99,,2013-01-13 15:53:00,
2013-01-13 10:03:00,20.0,16.0,-100.00,NE,35,13.0,20.0,82,-99.99,,,-99.99,,2013-01-13 16:03:00,
2013-01-13 10:12:00,20.0,16.0,-100.00,NNE,30,14.0,18.0,82,-99.99,,,-99.99,,2013-01-13 16:12:00,
2013-01-13 10:23:00,20.0,15.0,-100.00,NE,35,14.0,19.0,81,-99.99,,,-99.99,,2013-01-13 16:23:00,
2013-01-13 10:33:00,20.0,15.0,-100.00,NE,35,14.0,19.0,81,-99.99,,,-99.99,,2013-01-13 16:33:00,
2013-01-13 10:43:00,20.0,15.0,-100.00,NE,35,11.0,17.0,80,-99.99,,,-99.99,,2013-01-13 16:43:00,
2013-01-13 10:53:00,20.0,15.0,-100.00,NE,35,12.0,16.0,80,-99.99,,,-99.99,,2013-01-13 16:53:00,
2013-01-13 11:03:00,20.0,15.0,-100.00,NE,35,12.0,16.0,80,-99.99,,,-99.99,,2013-01-13 17:03:00,
2013-01-13 11:12:00,20.0,15.0,-100.00,NNE,30,12.0,16.0,82,-99.99,,,-99.99,,2013-01-13 17:12:00,
2013-01-13 11:22:00,20.0,15.0,-100.00,NNE,25,16.0,19.0,83,-99.99,,,-99.99,,2013-01-13 17:22:00,
2013-01-13 11:33:00,20.0,15.0,-100.00,NNE,25,16.0,19.0,83,-99.99,,,-99.99,,2013-01-13 17:33:00,
2013-01-13 11:42:00,19.0,15.0,-100.00,NNE,30,14.0,20.0,82,-99.99,,,-99.99,,2013-01-13 17:42:00,
2013-01-13 11:53:00,19.0,14.0,-100.00,NNE,30,13.0,19.0,81,-99.99,,,-99.99,,2013-01-13 17:53:00,
2013-01-13 12:03:00,19.0,14.0,-100.00,NNE,30,13.0,19.0,81,-99.99,,,-99.99,,2013-01-13 18:03:00,
2013-01-13 12:12:00,19.0,14.0,-100.00,NNE,30,14.0,21.0,81,-99.99,,,-99.99,,2013-01-13 18:12:00,
2013-01-13 12:23:00,19.0,14.0,-100.00,NNE,30,14.0,21.0,80,-99.99,,,-99.99,,2013-01-13 18:23:00,
2013-01-13 12:33:00,19.0,14.0,-100.00,NNE,30,14.0,21.0,80,-99.99,,,-99.99,,2013-01-13 18:33:00,
2013-01-13 12:43:00,18.0,13.0,-100.00,NNE,30,16.0,20.0,79,-99.99,,,-99.99,,2013-01-13 18:43:00,
2013-01-13 12:53:00,18.0,13.0,-100.00,NNE,25,14.0,18.0,79,-99.99,,,-99.99,,2013-01-13 18:53:00,
2013-01-13 13:03:00,18.0,13.0,-100.00,NNE,25,14.0,18.0,79,-99.99,,,-99.99,,2013-01-13 19:03:00,
2013-01-13 13:12:00,18.0,12.0,-100.00,NNE,25,12.0,18.0,79,-99.99,,,-99.99,,2013-01-13 19:12:00,
2013-01-13 13:22:00,18.0,12.0,-100.00,NNE,25,13.0,18.0,78,-99.99,,,-99.99,,2013-01-13 19:22:00,
2013-01-13 13:33:00,18.0,12.0,-100.00,NNE,25,13.0,18.0,78,-99.99,,,-99.99,,2013-01-13 19:33:00,
2013-01-13 13:43:00,18.0,12.0,-100.00,NNE,25,14.0,19.0,77,-99.99,,,-99.99,,2013-01-13 19:43:00,
2013-01-13 13:53:00,18.0,12.0,-100.00,NNE,25,11.0,19.0,76,-99.99,,,-99.99,,2013-01-13 19:53:00,
2013-01-13 14:03:00,18.0,12.0,-100.00,NNE,25,11.0,19.0,76,-99.99,,,-99.99,,2013-01-13 20:03:00,
2013-01-13 14:12:00,18.0,12.0,-100.00,NNE,25,14.0,19.0,76,-99.99,,,-99.99,,2013-01-13 20:12:00,
2013-01-13 14:22:00,18.0,12.0,-100.00,NNE,25,12.0,16.0,75,-99.99,,,-99.99,,2013-01-13 20:22:00,
2013-01-13 14:33:00,18.0,12.0,-100.00,NNE,25,12.0,16.0,75,-99.99,,,-99.99,,2013-01-13 20:33:00,
2013-01-13 14:43:00,18.0,11.0,-100.00,NNE,25,14.0,18.0,74,-99.99,,,-99.99,,2013-01-13 20:43:00,
2013-01-13 14:53:00,18.0,11.0,-100.00,NNE,25,11.0,19.0,74,-99.99,,,-99.99,,2013-01-13 20:53:00,
2013-01-13 15:03:00,18.0,11.0,-100.00,NNE,25,11.0,19.0,74,-99.99,,,-99.99,,2013-01-13 21:03:00,
2013-01-13 15:12:00,18.0,11.0,-100.00,NNE,25,14.0,19.0,74,-99.99,,,-99.99,,2013-01-13 21:12:00,
2013-01-13 15:23:00,17.0,10.0,-100.00,NNE,25,12.0,19.0,74,-99.99,,,-99.99,,2013-01-13 21:23:00,
2013-01-13 15:33:00,17.0,10.0,-100.00,NNE,25,12.0,19.0,74,-99.99,,,-99.99,,2013-01-13 21:33:00,
2013-01-13 15:43:00,17.0,11.0,-100.00,NNE,25,17.0,23.0,76,-99.99,,,-99.99,,2013-01-13 21:43:00,
2013-01-13 15:53:00,16.0,12.0,-100.00,NNE,25,19.0,26.0,82,-99.99,,,-99.99,,2013-01-13 21:53:00,
2013-01-13 16:02:00,16.0,12.0,-100.00,NNE,25,19.0,26.0,82,-99.99,,,-99.99,,2013-01-13 22:02:00,
2013-01-13 16:12:00,16.0,11.0,-100.00,NNE,25,18.0,23.0,81,-99.99,,,-99.99,,2013-01-13 22:12:00,
2013-01-13 16:22:00,16.0,10.0,-100.00,NNE,25,19.0,26.0,76,-99.99,,,-99.99,,2013-01-13 22:22:00,
2013-01-13 16:33:00,16.0,10.0,-100.00,NNE,25,19.0,26.0,76,-99.99,,,-99.99,,2013-01-13 22:33:00,
2013-01-13 16:43:00,16.0,10.0,-100.00,NNE,25,19.0,26.0,76,-99.99,,,-99.99,,2013-01-13 22:43:00,
2013-01-13 16:53:00,16.0,9.0,-100.00,NNE,25,20.0,28.0,74,-99.99,,,-99.99,,2013-01-13 22:53:00,
2013-01-13 17:02:00,16.0,9.0,-100.00,NNE,25,20.0,28.0,74,-99.99,,,-99.99,,2013-01-13 23:02:00,
2013-01-13 17:12:00,16.0,10.0,-100.00,NNE,20,16.0,21.0,75,-99.99,,,-99.99,,2013-01-13 23:12:00,
2013-01-13 17:22:00,16.0,10.0,-100.00,NNE,25,14.0,24.0,76,-99.99,,,-99.99,,2013-01-13 23:22:00,
2013-01-13 17:33:00,16.0,10.0,-100.00,NNE,25,14.0,24.0,76,-99.99,,,-99.99,,2013-01-13 23:33:00,
2013-01-13 17:42:00,16.0,9.0,-100.00,NNE,25,19.0,28.0,76,-99.99,,,-99.99,,2013-01-13 23:42:00,
2013-01-13 17:53:00,15.0,9.0,-100.00,NNE,20,20.0,26.0,77,-99.99,,,-99.99,,2013-01-13 23:53:00,
2013-01-13 18:03:00,15.0,9.0,-100.00,NNE,20,20.0,26.0,77,-99.99,,,-99.99,,2013-01-14 00:03:00,
2013-01-13 18:12:00,15.0,9.0,-100.00,NNE,25,17.0,23.0,77,-99.99,,,-99.99,,2013-01-14 00:12:00,
2013-01-13 18:22:00,14.0,8.0,-100.00,NNE,25,15.0,20.0,77,-99.99,,,-99.99,,2013-01-14 00:22:00,
2013-01-13 18:33:00,14.0,8.0,-100.00,NNE,25,15.0,20.0,77,-99.99,,,-99.99,,2013-01-14 00:33:00,
2013-01-13 18:43:00,14.0,8.0,-100.00,NNE,15,15.0,25.0,77,-99.99,,,-99.99,,2013-01-14 00:43:00,
2013-01-13 18:53:00,14.0,9.0,-100.00,NNE,15,16.0,25.0,78,-99.99,,,-99.99,,2013-01-14 00:53:00,
2013-01-13 19:03:00,14.0,9.0,-100.00,NNE,15,16.0,25.0,78,-99.99,,,-99.99,,2013-01-14 01:03:00,
2013-01-13 19:12:00,14.0,8.0,-100.00,NNE,20,16.0,24.0,78,-99.99,,,-99.99,,2013-01-14 01:12:00,
2013-01-13 19:22:00,14.0,8.0,-100.00,NNE,25,19.0,24.0,78,-99.99,,,-99.99,,2013-01-14 01:22:00,
2013-01-13 19:32:00,14.0,8.0,-100.00,NNE,25,19.0,24.0,78,-99.99,,,-99.99,,2013-01-14 01:32:00,
2013-01-13 19:42:00,13.0,7.0,-100.00,NNE,25,14.0,21.0,76,-99.99,,,-99.99,,2013-01-14 01:42:00,
2013-01-13 19:53:00,13.0,7.0,-100.00,NNE,25,14.0,18.0,77,-99.99,,,-99.99,,2013-01-14 01:53:00,
2013-01-13 20:03:00,13.0,7.0,-100.00,NNE,25,14.0,18.0,77,-99.99,,,-99.99,,2013-01-14 02:03:00,
2013-01-13 20:12:00,13.0,7.0,-100.00,NNE,25,14.0,20.0,78,-99.99,,,-99.99,,2013-01-14 02:12:00,
2013-01-13 20:22:00,12.0,7.0,-100.00,NNE,20,11.0,16.0,78,-99.99,,,-99.99,,2013-01-14 02:22:00,
2013-01-13 20:32:00,12.0,7.0,-100.00,NNE,20,11.0,16.0,78,-99.99,,,-99.99,,2013-01-14 02:32:00,
2013-01-13 20:42:00,12.0,7.0,-100.00,NNE,25,14.0,18.0,78,-99.99,,,-99.99,,2013-01-14 02:42:00,
2013-01-13 20:53:00,12.0,7.0,-100.00,NNE,25,16.0,21.0,78,-99.99,,,-99.99,,2013-01-14 02:53:00,
2013-01-13 21:02:00,12.0,7.0,-100.00,NNE,25,16.0,21.0,78,-99.99,,,-99.99,,2013-01-14 03:02:00,
2013-01-13 21:12:00,12.0,7.0,-100.00,NNE,25,14.0,18.0,79,-99.99,,,-99.99,,2013-01-14 03:12:00,
2013-01-13 21:22:00,12.0,6.0,-100.00,NNE,25,11.0,17.0,78,-99.99,,,-99.99,,2013-01-14 03:22:00,
2013-01-13 21:32:00,12.0,6.0,-100.00,NNE,25,11.0,17.0,78,-99.99,,,-99.99,,2013-01-14 03:32:00,
2013-01-13 21:42:00,12.0,6.0,-100.00,NNE,20,14.0,19.0,79,-99.99,,,-99.99,,2013-01-14 03:42:00,
2013-01-13 21:53:00,11.0,6.0,-100.00,NNE,20,11.0,16.0,78,-99.99,,,-99.99,,2013-01-14 03:53:00,
2013-01-13 22:02:00,11.0,6.0,-100.00,NNE,20,11.0,16.0,78,-99.99,,,-99.99,,2013-01-14 04:02:00,
2013-01-13 22:12:00,11.0,6.0,-100.00,NNE,20,13.0,19.0,79,-99.99,,,-99.99,,2013-01-14 04:12:00,
2013-01-13 22:22:00,11.0,6.0,-100.00,NNE,25,15.0,22.0,78,-99.99,,,-99.99,,2013-01-14 04:22:00,
2013-01-13 22:32:00,11.0,6.0,-100.00,NNE,25,15.0,22.0,78,-99.99,,,-99.99,,2013-01-14 04:32:00,
2013-01-13 22:42:00,11.0,6.0,-100.00,NNE,20,15.0,21.0,77,-99.99,,,-99.99,,2013-01-14 04:42:00,
2013-01-13 22:53:00,11.0,6.0,-100.00,NNE,25,14.0,20.0,77,-99.99,,,-99.99,,2013-01-14 04:53:00,
2013-01-13 23:04:00,11.0,6.0,-100.00,NNE,25,14.0,20.0,77,-99.99,,,-99.99,,2013-01-14 05:04:00,
2013-01-13 23:12:00,11.0,6.0,-100.00,NNE,20,14.0,19.0,77,-99.99,,,-99.99,,2013-01-14 05:12:00,
2013-01-13 23:22:00,11.0,5.0,-100.00,NNE,20,14.0,21.0,76,-99.99,,,-99.99,,2013-01-14 05:22:00,
2013-01-13 23:32:00,11.0,5.0,-100.00,NNE,20,14.0,21.0,76,-99.99,,,-99.99,,2013-01-14 05:32:00,
2013-01-13 23:42:00,11.0,5.0,-100.00,NNE,20,11.0,19.0,77,-99.99,,,-99.99,,2013-01-14 05:42:00,
2013-01-13 23:53:00,11.0,5.0,-100.00,NNE,20,12.0,17.0,77,-99.99,,,-99.99,,2013-01-14 05:53:00,